Home   Weather   Santa Rosa   Past weeks
Flag for USA

Past Weather in Santa Rosa, California, USA — Yesterday and Last 2 Weeks

Now
44 °F

Clear.


Feels Like: 39 °F
Forecast: 64 / 36 °F
Wind: 9 mph from North

Location: Santa Rosa Sonoma County Airport

Current Time: Apr 2, 2020 at 3:10:04 am

Latest Report: Apr 2, 2020 at 1:53 am


Visibility: 10 mi

Pressure: 30.03 "Hg

Humidity: 71%

Dew Point: 35 °F

Location of Santa RosaLocation

Past Weather in Santa Rosa — Graph

°F

Santa Rosa Temperature Yesterday

Maximum temperature yesterday: 64 °F (at 2:53 pm)
Minimum temperature yesterday: 40 °F (at 4:53 am)
Average temperature yesterday: 52 °F

High & Low Weather Summary for the Past Weeks

 TemperatureHumidityPressure
High70 °F (Mar 22, 1:53 pm)100% (Mar 19, 12:53 am)30.31 "Hg (Mar 19, 12:53 am)
Low30 °F (Mar 26, 6:16 am)27% (Apr 1, 12:53 pm)29.82 "Hg (Mar 18, 3:53 pm)
Average48 °F82%30.08 "Hg
* Reported Mar 18 1:53 am — Apr 2 1:53 am, Santa Rosa. Weather by CustomWeather, © 2020

Note: Actual official high and low records may vary slightly from our data, if they occured in-between our weather recording intervals... More about our weather records

Santa Rosa Weather History for the Previous 24 Hours

Scroll right to see more
 ConditionsComfort  
Time TempWeatherWind HumidityBarometerVisibility
1:53 am
Thu, Apr 2
44 °FClear.9 mph71%30.03 "Hg10 mi
12:53 am45 °FClear.9 mph68%30.02 "Hg10 mi
11:53 pm
Wed, Apr 1
45 °FClear.10 mph71%30.01 "Hg10 mi
10:53 pm48 °FClear.9 mph63%30.00 "Hg10 mi
9:53 pm50 °FClear.8 mph57%29.99 "Hg10 mi
8:53 pm51 °FClear.12 mph54%29.98 "Hg10 mi
7:53 pm53 °FClear.12 mph48%29.96 "Hg10 mi
6:53 pm58 °FSunny.14 mph43%29.94 "Hg10 mi
5:53 pm61 °FPassing clouds.12 mph39%29.92 "Hg10 mi
4:53 pm63 °FPassing clouds.14 mph35%29.92 "Hg10 mi
3:53 pm64 °FPassing clouds.15 mph32%29.93 "Hg10 mi
2:53 pm64 °FSunny.13 mph30%29.94 "Hg10 mi
1:53 pm62 °FSunny.12 mph31%29.95 "Hg10 mi
12:53 pm63 °FSunny.12 mph27%29.96 "Hg10 mi
11:53 am60 °FSunny.10 mph32%29.99 "Hg10 mi
10:53 am56 °FSunny.12 mph44%30.00 "Hg10 mi
9:53 am53 °FSunny.13 mph55%30.00 "Hg10 mi
8:53 am49 °FSunny.13 mph66%30.00 "Hg10 mi
7:53 am41 °FSunny.No wind93%30.00 "Hg9 mi
6:53 am40 °FClear.No wind86%29.99 "Hg10 mi
5:53 am41 °FClear.No wind86%29.98 "Hg10 mi
4:53 am40 °FClear.No wind89%29.98 "Hg10 mi
3:53 am42 °FClear.No wind85%29.99 "Hg10 mi
Weather by CustomWeather, © 2020

See weather overview

Advertising